Location: Curtidor
(10.3472°N, 67.2917°W)
Time: 19:36:25
(UTC+00:00)

ADEOS - Pass Details

Date: 13 June 2024
Orbit: 791 x 793 km, 98.9° (Epoch: 24 July)

Event Time Altitude Azimuth Distance (km) Brightness Sun altitude
Exits shadow 23:46:45 - 163° (SSE) 2,606 5.8 -13.2°
Reaches altitude 10° 23:47:23 10° 162° (SSE) 2,353 5.6 -13.3°
Maximum altitude 23:52:34 77° 77° (ENE) 815 3.5 -14.4°
Drops below altitude 10° 23:57:45 10° 352° (N) 2,351 6.5 -15.6°
Sets 00:00:04 0° 350° (N) 3,279 7.3 -16.1°
